Cinderella 1 — SBLK — position and weather

sailwx.info

Track history (hours):
 
Tides and Currents Weather Stations Pressure Air Temp Water Temp Dewpoint Dewpoint Depression Visibility Wind Speed Wind Dir Waves Ship Positions

Cinderella 1

Last reported at 2014-Dec-20 05:34 UTC. Time now 2014-Dec-21 04:02 UTC.
Position N 59°23' E 018°20'.

Length 42 m; draft 1.1 m.

Type: Passenger vessel. MMSI: 265524530.

Date/timePositionNaut miles runAvg speedWind from/ knotsBaromVisibWave heightAir tempDewpointWater temp
2014-Dec-20 05:34N 59°23' E 018°20'8 8.3
2014-Dec-20 04:33N 59°20' E 018°05'0 0.0
2014-Dec-20 03:33N 59°20' E 018°05'0 0.0
2014-Dec-20 02:33N 59°20' E 018°05'0 0.0
2014-Dec-20 01:33N 59°20' E 018°05'0 0.0
2014-Dec-20 00:33N 59°20' E 018°05'0 0.0
2014-Dec-19 23:33N 59°20' E 018°05'0 0.0
2014-Dec-19 22:33N 59°20' E 018°05'5 5.4
2014-Dec-19 21:33N 59°21' E 018°15'4 0.9
2014-Dec-19 17:32N 59°19' E 018°09'2 2.5
2014-Dec-19 16:33N 59°20' E 018°05'0 0.0
2014-Dec-19 15:33N 59°20' E 018°05'0 0.0
2014-Dec-19 14:33N 59°20' E 018°05'0 0.0
2014-Dec-19 13:33N 59°20' E 018°05'0 0.0
2014-Dec-19 12:33N 59°20' E 018°05'0 0.0
2014-Dec-19 11:32N 59°20' E 018°05'0 0.0
2014-Dec-19 10:33N 59°20' E 018°05'0 0.0
2014-Dec-19 09:33N 59°20' E 018°05'0 0.0
2014-Dec-19 08:33N 59°20' E 018°05'0 0.0
2014-Dec-19 07:33N 59°20' E 018°05'0 0.0
2014-Dec-19 06:33N 59°20' E 018°05'0 0.0
2014-Dec-19 05:34N 59°20' E 018°05'0 0.0
2014-Dec-19 04:34N 59°20' E 018°05'0 0.0
2014-Dec-19 03:33N 59°20' E 018°05'0 0.0
2014-Dec-19 02:33N 59°20' E 018°05'0 0.0
2014-Dec-19 01:33N 59°20' E 018°05'0 0.0
2014-Dec-19 00:33N 59°20' E 018°05'0 0.0
2014-Dec-18 23:33N 59°20' E 018°05'0 0.0
2014-Dec-18 22:33N 59°20' E 018°05'7 6.7
2014-Dec-18 21:33N 59°22' E 018°17'5 1.1
2014-Dec-18 17:33N 59°19' E 018°10'3 2.9
2014-Dec-18 16:33N 59°20' E 018°05'5 1.1
2014-Dec-18 12:31N 59°21' E 018°14'5 4.9
2014-Dec-18 11:33N 59°20' E 018°05'0 0.0
2014-Dec-18 10:34N 59°20' E 018°05'0 0.0
2014-Dec-18 09:34N 59°20' E 018°05'0 0.0
2014-Dec-18 08:34N 59°20' E 018°05'0 0.0
2014-Dec-18 07:34N 59°20' E 018°05'0 0.0
2014-Dec-18 06:34N 59°20' E 018°05'0 0.0
2014-Dec-18 05:34N 59°20' E 018°05'0 0.0
2014-Dec-18 04:34N 59°20' E 018°05'0 0.0
2014-Dec-18 03:34N 59°20' E 018°05'0 0.0
2014-Dec-18 02:33N 59°20' E 018°05'0 0.0
2014-Dec-18 01:34N 59°20' E 018°05'0 0.0
2014-Dec-18 00:34N 59°20' E 018°05'0 0.0
2014-Dec-17 23:34N 59°20' E 018°05'0 0.0
2014-Dec-17 22:33N 59°20' E 018°05'6 6.2
2014-Dec-17 21:32N 59°22' E 018°16'5 1.3
2014-Dec-17 17:33N 59°19' E 018°09'2 2.2
2014-Dec-17 16:33N 59°20' E 018°05'0 0.0
2014-Dec-17 15:33N 59°20' E 018°05'0 0.0
2014-Dec-17 14:32N 59°20' E 018°05'0 0.0
2014-Dec-17 13:32N 59°20' E 018°05'0 0.0
2014-Dec-17 12:33N 59°20' E 018°05'0 0.0
2014-Dec-17 11:32N 59°20' E 018°05'0 0.0
2014-Dec-17 10:33N 59°20' E 018°05'0 0.0
2014-Dec-17 09:33N 59°20' E 018°05'0 0.0
2014-Dec-17 08:33N 59°20' E 018°05'0 0.0
2014-Dec-17 07:33N 59°20' E 018°05'0 0.0
2014-Dec-17 06:33N 59°20' E 018°05'0 0.0
2014-Dec-17 05:33N 59°20' E 018°05'0 0.0
2014-Dec-17 04:33N 59°20' E 018°05'0 0.0
2014-Dec-17 03:33N 59°20' E 018°05'0 0.0
2014-Dec-17 02:33N 59°20' E 018°05'0 0.0
2014-Dec-17 01:33N 59°20' E 018°05'0 0.0
2014-Dec-17 00:33N 59°20' E 018°05'0 0.0
2014-Dec-16 23:33N 59°20' E 018°05'1 1.3
2014-Dec-16 22:33N 59°19' E 018°07'5 5.0
2014-Dec-16 21:30N 59°22' E 018°16'4 1.0
2014-Dec-16 17:32N 59°19' E 018°10'3 2.7
2014-Dec-16 16:33N 59°20' E 018°05'4 1.1
2014-Dec-16 12:24N 59°21' E 018°13'4 5.2
2014-Dec-16 11:33N 59°20' E 018°05'0 0.0
2014-Dec-16 10:33N 59°20' E 018°05'0 0.0
2014-Dec-16 09:33N 59°20' E 018°05'0 0.0
2014-Dec-16 08:33N 59°20' E 018°05'0 0.0
2014-Dec-16 07:33N 59°20' E 018°05'0 0.0
2014-Dec-16 06:33N 59°20' E 018°05'0 0.0
2014-Dec-16 05:33N 59°20' E 018°05'0 0.0
2014-Dec-16 04:33N 59°20' E 018°05'0 0.0
2014-Dec-16 03:32N 59°20' E 018°05'0 0.0
2014-Dec-16 02:33N 59°20' E 018°05'0 0.0
2014-Dec-16 01:31N 59°20' E 018°05'0 0.0
2014-Dec-16 00:26N 59°20' E 018°05'0 0.0
2014-Dec-15 23:33N 59°20' E 018°05'0 0.0
2014-Dec-15 22:33N 59°20' E 018°05'0 0.0
2014-Dec-15 21:33N 59°20' E 018°05'0 0.0
2014-Dec-15 20:33N 59°20' E 018°05'0 0.0
2014-Dec-15 19:33N 59°20' E 018°05'0 0.0
2014-Dec-15 18:33N 59°20' E 018°05'0 0.0
2014-Dec-15 17:33N 59°20' E 018°05'0 0.0
2014-Dec-15 16:33N 59°20' E 018°05'0 0.0
2014-Dec-15 15:33N 59°20' E 018°05'0 0.0
2014-Dec-15 14:33N 59°20' E 018°05'0 0.0
2014-Dec-15 13:33N 59°20' E 018°05'0 0.0
2014-Dec-15 12:33N 59°20' E 018°05'0 0.0
2014-Dec-15 11:33N 59°20' E 018°05'0 0.0
2014-Dec-15 10:33N 59°20' E 018°05'0 0.0
2014-Dec-15 09:33N 59°20' E 018°05'0 0.0
2014-Dec-15 08:33N 59°20' E 018°05'0 0.0
2014-Dec-15 07:33N 59°20' E 018°05'0 0.0
2014-Dec-15 06:32N 59°20' E 018°05'0 0.0
2014-Dec-15 05:33N 59°20' E 018°05'0 0.0
2014-Dec-15 04:33N 59°20' E 018°05'0 0.0
2014-Dec-15 03:33N 59°20' E 018°05'0 0.0
2014-Dec-15 02:33N 59°20' E 018°05'0 0.0
2014-Dec-15 01:33N 59°20' E 018°05'0 0.0
2014-Dec-15 00:33N 59°20' E 018°05'0 0.0
2014-Dec-14 23:32N 59°20' E 018°05'0 0.0
2014-Dec-14 22:33N 59°20' E 018°05'0 0.0
2014-Dec-14 21:33N 59°20' E 018°05'0 0.0
2014-Dec-14 20:33N 59°20' E 018°05'0 0.0
2014-Dec-14 19:33N 59°20' E 018°05'0 0.0
2014-Dec-14 18:33N 59°20' E 018°05'0 0.0
2014-Dec-14 17:33N 59°20' E 018°05'0 0.0
2014-Dec-14 16:33N 59°20' E 018°05'0 0.0
2014-Dec-14 15:33N 59°20' E 018°05'0 0.0
2014-Dec-14 14:33N 59°20' E 018°05'0 0.0
2014-Dec-14 13:33N 59°20' E 018°05'0 0.0
2014-Dec-14 12:33N 59°20' E 018°05'0 0.0
2014-Dec-14 11:33N 59°20' E 018°05'0 0.0
2014-Dec-14 10:33N 59°20' E 018°05'0 0.0
2014-Dec-14 09:33N 59°20' E 018°05'0 0.0
2014-Dec-14 08:33N 59°20' E 018°05'0 0.0
2014-Dec-14 07:33N 59°20' E 018°05'0 0.0
2014-Dec-14 06:33N 59°20' E 018°05'0 0.0
2014-Dec-14 05:33N 59°20' E 018°05'0 0.0
2014-Dec-14 04:33N 59°20' E 018°05'0 0.0
2014-Dec-14 03:33N 59°20' E 018°05'0 0.0
2014-Dec-14 02:33N 59°20' E 018°05'0 0.0
2014-Dec-14 01:33N 59°20' E 018°05'0 0.0
2014-Dec-14 00:33N 59°20' E 018°05'0 0.0
2014-Dec-13 23:33N 59°20' E 018°05'0 0.0
2014-Dec-13 22:33N 59°20' E 018°05'7 6.8
2014-Dec-13 21:33N 59°22' E 018°17'4 1.0
2014-Dec-13 17:33N 59°20' E 018°11'3 3.3
2014-Dec-13 16:33N 59°20' E 018°05'6 1.4
2014-Dec-13 12:32N 59°22' E 018°15'6 5.8
2014-Dec-13 11:33N 59°20' E 018°05'0 0.0
2014-Dec-13 10:33N 59°20' E 018°05'0 0.0
2014-Dec-12 22:15N 59°20' E 018°05'6 8.2
2014-Dec-12 21:33N 59°22' E 018°15'4 0.9
2014-Dec-12 17:33N 59°19' E 018°10'3 2.6
2014-Dec-12 16:33N 59°20' E 018°05'0 0.0
2014-Dec-12 15:33N 59°20' E 018°05'0 0.0
2014-Dec-12 14:33N 59°20' E 018°05'0 0.0
2014-Dec-12 13:33N 59°20' E 018°05'0 0.0
2014-Dec-12 12:32N 59°20' E 018°05'0 0.0
2014-Dec-12 11:33N 59°20' E 018°05'0 0.0
2014-Dec-12 10:33N 59°20' E 018°05'0 0.0
2014-Dec-12 09:33N 59°20' E 018°05'0 0.0
2014-Dec-12 08:33N 59°20' E 018°05'0 0.0
2014-Dec-12 07:33N 59°20' E 018°05'0 0.0
2014-Dec-12 06:33N 59°20' E 018°05'0 0.0
2014-Dec-12 05:33N 59°20' E 018°05'0 0.0
2014-Dec-12 04:33N 59°20' E 018°05'0 0.0
2014-Dec-12 03:33N 59°20' E 018°05'0 0.0
2014-Dec-12 02:33N 59°20' E 018°05'0 0.0
2014-Dec-12 01:33N 59°20' E 018°05'0 0.0
2014-Dec-12 00:33N 59°20' E 018°05'0 0.0
2014-Dec-11 23:33N 59°20' E 018°05'0 0.0
2014-Dec-11 22:33N 59°20' E 018°05'7 6.8
2014-Dec-11 21:33N 59°22' E 018°17'5 1.3
2014-Dec-11 17:33N 59°19' E 018°10'3 2.6
2014-Dec-11 16:33N 59°20' E 018°05'5 1.1
2014-Dec-11 12:28N 59°21' E 018°14'5 5.0
2014-Dec-11 11:33N 59°20' E 018°05'0 0.0
2014-Dec-11 10:33N 59°20' E 018°05'0 0.0
2014-Dec-11 09:33N 59°20' E 018°05'0 0.0
2014-Dec-11 08:34N 59°20' E 018°05'0 0.0
2014-Dec-11 07:33N 59°20' E 018°05'0 0.0
2014-Dec-11 06:32N 59°20' E 018°05'0 0.0
2014-Dec-11 05:33N 59°20' E 018°05'0 0.0
2014-Dec-11 04:33N 59°20' E 018°05'0 0.0
2014-Dec-11 03:33N 59°20' E 018°05'0 0.0
2014-Dec-11 02:33N 59°20' E 018°05'0 0.0
2014-Dec-11 01:33N 59°20' E 018°05'0 0.0
2014-Dec-11 00:34N 59°20' E 018°05'0 0.0
2014-Dec-10 23:33N 59°20' E 018°05'0 0.0
2014-Dec-10 22:33N 59°20' E 018°05'7 7.0
2014-Dec-10 21:33N 59°23' E 018°17'6 1.4
2014-Dec-10 17:33N 59°19' E 018°09'2 2.3
2014-Dec-10 16:33N 59°20' E 018°05'0 0.0
2014-Dec-10 15:32N 59°20' E 018°05'0 0.0
2014-Dec-10 14:33N 59°20' E 018°05'0 0.0
2014-Dec-10 13:32N 59°20' E 018°05'0 0.0
2014-Dec-10 12:32N 59°20' E 018°05'0 0.0
2014-Dec-10 11:32N 59°20' E 018°05'0 0.0
2014-Dec-10 10:34N 59°20' E 018°05'0 0.0
2014-Dec-10 09:33N 59°20' E 018°05'0 0.0
2014-Dec-10 08:33N 59°20' E 018°05'0 0.0
2014-Dec-10 07:33N 59°20' E 018°05'0 0.0
2014-Dec-10 06:33N 59°20' E 018°05'  
Track history (hours):
 
Tides and Currents Weather Stations Pressure Air Temp Water Temp Dewpoint Dewpoint Depression Visibility Wind Speed Wind Dir Waves Ship Positions

Cinderella 1

Last reported at 2014-Dec-20 05:34 UTC. Time now 2014-Dec-21 04:02 UTC.
Position N 59°23' E 018°20'.

Length 42 m; draft 1.1 m.

Type: Passenger vessel. MMSI: 265524530.

Date/timePositionNaut miles runAvg speedWind from/ knotsBaromVisibWave heightAir tempDewpointWater temp
2014-Dec-20 05:34N 59°23' E 018°20'8 8.3
2014-Dec-20 04:33N 59°20' E 018°05'0 0.0
2014-Dec-20 03:33N 59°20' E 018°05'0 0.0
2014-Dec-20 02:33N 59°20' E 018°05'0 0.0
2014-Dec-20 01:33N 59°20' E 018°05'0 0.0
2014-Dec-20 00:33N 59°20' E 018°05'0 0.0
2014-Dec-19 23:33N 59°20' E 018°05'0 0.0
2014-Dec-19 22:33N 59°20' E 018°05'5 5.4
2014-Dec-19 21:33N 59°21' E 018°15'4 0.9
2014-Dec-19 17:32N 59°19' E 018°09'2 2.5
2014-Dec-19 16:33N 59°20' E 018°05'0 0.0
2014-Dec-19 15:33N 59°20' E 018°05'0 0.0
2014-Dec-19 14:33N 59°20' E 018°05'0 0.0
2014-Dec-19 13:33N 59°20' E 018°05'0 0.0
2014-Dec-19 12:33N 59°20' E 018°05'0 0.0
2014-Dec-19 11:32N 59°20' E 018°05'0 0.0
2014-Dec-19 10:33N 59°20' E 018°05'0 0.0
2014-Dec-19 09:33N 59°20' E 018°05'0 0.0
2014-Dec-19 08:33N 59°20' E 018°05'0 0.0
2014-Dec-19 07:33N 59°20' E 018°05'0 0.0
2014-Dec-19 06:33N 59°20' E 018°05'0 0.0
2014-Dec-19 05:34N 59°20' E 018°05'0 0.0
2014-Dec-19 04:34N 59°20' E 018°05'0 0.0
2014-Dec-19 03:33N 59°20' E 018°05'0 0.0
2014-Dec-19 02:33N 59°20' E 018°05'0 0.0
2014-Dec-19 01:33N 59°20' E 018°05'0 0.0
2014-Dec-19 00:33N 59°20' E 018°05'0 0.0
2014-Dec-18 23:33N 59°20' E 018°05'0 0.0
2014-Dec-18 22:33N 59°20' E 018°05'7 6.7
2014-Dec-18 21:33N 59°22' E 018°17'5 1.1
2014-Dec-18 17:33N 59°19' E 018°10'3 2.9
2014-Dec-18 16:33N 59°20' E 018°05'5 1.1
2014-Dec-18 12:31N 59°21' E 018°14'5 4.9
2014-Dec-18 11:33N 59°20' E 018°05'0 0.0
2014-Dec-18 10:34N 59°20' E 018°05'0 0.0
2014-Dec-18 09:34N 59°20' E 018°05'0 0.0
2014-Dec-18 08:34N 59°20' E 018°05'0 0.0
2014-Dec-18 07:34N 59°20' E 018°05'0 0.0
2014-Dec-18 06:34N 59°20' E 018°05'0 0.0
2014-Dec-18 05:34N 59°20' E 018°05'0 0.0
2014-Dec-18 04:34N 59°20' E 018°05'0 0.0
2014-Dec-18 03:34N 59°20' E 018°05'0 0.0
2014-Dec-18 02:33N 59°20' E 018°05'0 0.0
2014-Dec-18 01:34N 59°20' E 018°05'0 0.0
2014-Dec-18 00:34N 59°20' E 018°05'0 0.0
2014-Dec-17 23:34N 59°20' E 018°05'0 0.0
2014-Dec-17 22:33N 59°20' E 018°05'6 6.2
2014-Dec-17 21:32N 59°22' E 018°16'5 1.3
2014-Dec-17 17:33N 59°19' E 018°09'2 2.2
2014-Dec-17 16:33N 59°20' E 018°05'0 0.0
2014-Dec-17 15:33N 59°20' E 018°05'0 0.0
2014-Dec-17 14:32N 59°20' E 018°05'0 0.0
2014-Dec-17 13:32N 59°20' E 018°05'0 0.0
2014-Dec-17 12:33N 59°20' E 018°05'0 0.0
2014-Dec-17 11:32N 59°20' E 018°05'0 0.0
2014-Dec-17 10:33N 59°20' E 018°05'0 0.0
2014-Dec-17 09:33N 59°20' E 018°05'0 0.0
2014-Dec-17 08:33N 59°20' E 018°05'0 0.0
2014-Dec-17 07:33N 59°20' E 018°05'0 0.0
2014-Dec-17 06:33N 59°20' E 018°05'0 0.0
2014-Dec-17 05:33N 59°20' E 018°05'0 0.0
2014-Dec-17 04:33N 59°20' E 018°05'0 0.0
2014-Dec-17 03:33N 59°20' E 018°05'0 0.0
2014-Dec-17 02:33N 59°20' E 018°05'0 0.0
2014-Dec-17 01:33N 59°20' E 018°05'0 0.0
2014-Dec-17 00:33N 59°20' E 018°05'0 0.0
2014-Dec-16 23:33N 59°20' E 018°05'1 1.3
2014-Dec-16 22:33N 59°19' E 018°07'5 5.0
2014-Dec-16 21:30N 59°22' E 018°16'4 1.0
2014-Dec-16 17:32N 59°19' E 018°10'3 2.7
2014-Dec-16 16:33N 59°20' E 018°05'4 1.1
2014-Dec-16 12:24N 59°21' E 018°13'4 5.2
2014-Dec-16 11:33N 59°20' E 018°05'0 0.0
2014-Dec-16 10:33N 59°20' E 018°05'0 0.0
2014-Dec-16 09:33N 59°20' E 018°05'0 0.0
2014-Dec-16 08:33N 59°20' E 018°05'0 0.0
2014-Dec-16 07:33N 59°20' E 018°05'0 0.0
2014-Dec-16 06:33N 59°20' E 018°05'0 0.0
2014-Dec-16 05:33N 59°20' E 018°05'0 0.0
2014-Dec-16 04:33N 59°20' E 018°05'0 0.0
2014-Dec-16 03:32N 59°20' E 018°05'0 0.0
2014-Dec-16 02:33N 59°20' E 018°05'0 0.0
2014-Dec-16 01:31N 59°20' E 018°05'0 0.0
2014-Dec-16 00:26N 59°20' E 018°05'0 0.0
2014-Dec-15 23:33N 59°20' E 018°05'0 0.0
2014-Dec-15 22:33N 59°20' E 018°05'0 0.0
2014-Dec-15 21:33N 59°20' E 018°05'0 0.0
2014-Dec-15 20:33N 59°20' E 018°05'0 0.0
2014-Dec-15 19:33N 59°20' E 018°05'0 0.0
2014-Dec-15 18:33N 59°20' E 018°05'0 0.0
2014-Dec-15 17:33N 59°20' E 018°05'0 0.0
2014-Dec-15 16:33N 59°20' E 018°05'0 0.0
2014-Dec-15 15:33N 59°20' E 018°05'0 0.0
2014-Dec-15 14:33N 59°20' E 018°05'0 0.0
2014-Dec-15 13:33N 59°20' E 018°05'0 0.0
2014-Dec-15 12:33N 59°20' E 018°05'0 0.0
2014-Dec-15 11:33N 59°20' E 018°05'0 0.0
2014-Dec-15 10:33N 59°20' E 018°05'0 0.0
2014-Dec-15 09:33N 59°20' E 018°05'0 0.0
2014-Dec-15 08:33N 59°20' E 018°05'0 0.0
2014-Dec-15 07:33N 59°20' E 018°05'0 0.0
2014-Dec-15 06:32N 59°20' E 018°05'0 0.0
2014-Dec-15 05:33N 59°20' E 018°05'0 0.0
2014-Dec-15 04:33N 59°20' E 018°05'0 0.0
2014-Dec-15 03:33N 59°20' E 018°05'0 0.0
2014-Dec-15 02:33N 59°20' E 018°05'0 0.0
2014-Dec-15 01:33N 59°20' E 018°05'0 0.0
2014-Dec-15 00:33N 59°20' E 018°05'0 0.0
2014-Dec-14 23:32N 59°20' E 018°05'0 0.0
2014-Dec-14 22:33N 59°20' E 018°05'0 0.0
2014-Dec-14 21:33N 59°20' E 018°05'0 0.0
2014-Dec-14 20:33N 59°20' E 018°05'0 0.0
2014-Dec-14 19:33N 59°20' E 018°05'0 0.0
2014-Dec-14 18:33N 59°20' E 018°05'0 0.0
2014-Dec-14 17:33N 59°20' E 018°05'0 0.0
2014-Dec-14 16:33N 59°20' E 018°05'0 0.0
2014-Dec-14 15:33N 59°20' E 018°05'0 0.0
2014-Dec-14 14:33N 59°20' E 018°05'0 0.0
2014-Dec-14 13:33N 59°20' E 018°05'0 0.0
2014-Dec-14 12:33N 59°20' E 018°05'0 0.0
2014-Dec-14 11:33N 59°20' E 018°05'0 0.0
2014-Dec-14 10:33N 59°20' E 018°05'0 0.0
2014-Dec-14 09:33N 59°20' E 018°05'0 0.0
2014-Dec-14 08:33N 59°20' E 018°05'0 0.0
2014-Dec-14 07:33N 59°20' E 018°05'0 0.0
2014-Dec-14 06:33N 59°20' E 018°05'0 0.0
2014-Dec-14 05:33N 59°20' E 018°05'0 0.0
2014-Dec-14 04:33N 59°20' E 018°05'0 0.0
2014-Dec-14 03:33N 59°20' E 018°05'0 0.0
2014-Dec-14 02:33N 59°20' E 018°05'0 0.0
2014-Dec-14 01:33N 59°20' E 018°05'0 0.0
2014-Dec-14 00:33N 59°20' E 018°05'0 0.0
2014-Dec-13 23:33N 59°20' E 018°05'0 0.0
2014-Dec-13 22:33N 59°20' E 018°05'7 6.8
2014-Dec-13 21:33N 59°22' E 018°17'4 1.0
2014-Dec-13 17:33N 59°20' E 018°11'3 3.3
2014-Dec-13 16:33N 59°20' E 018°05'6 1.4
2014-Dec-13 12:32N 59°22' E 018°15'6 5.8
2014-Dec-13 11:33N 59°20' E 018°05'0 0.0
2014-Dec-13 10:33N 59°20' E 018°05'0 0.0
2014-Dec-12 22:15N 59°20' E 018°05'6 8.2
2014-Dec-12 21:33N 59°22' E 018°15'4 0.9
2014-Dec-12 17:33N 59°19' E 018°10'3 2.6
2014-Dec-12 16:33N 59°20' E 018°05'0 0.0
2014-Dec-12 15:33N 59°20' E 018°05'0 0.0
2014-Dec-12 14:33N 59°20' E 018°05'0 0.0
2014-Dec-12 13:33N 59°20' E 018°05'0 0.0
2014-Dec-12 12:32N 59°20' E 018°05'0 0.0
2014-Dec-12 11:33N 59°20' E 018°05'0 0.0
2014-Dec-12 10:33N 59°20' E 018°05'0 0.0
2014-Dec-12 09:33N 59°20' E 018°05'0 0.0
2014-Dec-12 08:33N 59°20' E 018°05'0 0.0
2014-Dec-12 07:33N 59°20' E 018°05'0 0.0
2014-Dec-12 06:33N 59°20' E 018°05'0 0.0
2014-Dec-12 05:33N 59°20' E 018°05'0 0.0
2014-Dec-12 04:33N 59°20' E 018°05'0 0.0
2014-Dec-12 03:33N 59°20' E 018°05'0 0.0
2014-Dec-12 02:33N 59°20' E 018°05'0 0.0
2014-Dec-12 01:33N 59°20' E 018°05'0 0.0
2014-Dec-12 00:33N 59°20' E 018°05'0 0.0
2014-Dec-11 23:33N 59°20' E 018°05'0 0.0
2014-Dec-11 22:33N 59°20' E 018°05'7 6.8
2014-Dec-11 21:33N 59°22' E 018°17'5 1.3
2014-Dec-11 17:33N 59°19' E 018°10'3 2.6
2014-Dec-11 16:33N 59°20' E 018°05'5 1.1
2014-Dec-11 12:28N 59°21' E 018°14'5 5.0
2014-Dec-11 11:33N 59°20' E 018°05'0 0.0
2014-Dec-11 10:33N 59°20' E 018°05'0 0.0
2014-Dec-11 09:33N 59°20' E 018°05'0 0.0
2014-Dec-11 08:34N 59°20' E 018°05'0 0.0
2014-Dec-11 07:33N 59°20' E 018°05'0 0.0
2014-Dec-11 06:32N 59°20' E 018°05'0 0.0
2014-Dec-11 05:33N 59°20' E 018°05'0 0.0
2014-Dec-11 04:33N 59°20' E 018°05'0 0.0
2014-Dec-11 03:33N 59°20' E 018°05'0 0.0
2014-Dec-11 02:33N 59°20' E 018°05'0 0.0
2014-Dec-11 01:33N 59°20' E 018°05'0 0.0
2014-Dec-11 00:34N 59°20' E 018°05'0 0.0
2014-Dec-10 23:33N 59°20' E 018°05'0 0.0
2014-Dec-10 22:33N 59°20' E 018°05'7 7.0
2014-Dec-10 21:33N 59°23' E 018°17'6 1.4
2014-Dec-10 17:33N 59°19' E 018°09'2 2.3
2014-Dec-10 16:33N 59°20' E 018°05'0 0.0
2014-Dec-10 15:32N 59°20' E 018°05'0 0.0
2014-Dec-10 14:33N 59°20' E 018°05'0 0.0
2014-Dec-10 13:32N 59°20' E 018°05'0 0.0
2014-Dec-10 12:32N 59°20' E 018°05'0 0.0
2014-Dec-10 11:32N 59°20' E 018°05'0 0.0
2014-Dec-10 10:34N 59°20' E 018°05'0 0.0
2014-Dec-10 09:33N 59°20' E 018°05'0 0.0
2014-Dec-10 08:33N 59°20' E 018°05'0 0.0
2014-Dec-10 07:33N 59°20' E 018°05'0 0.0
2014-Dec-10 06:33N 59°20' E 018°05'  

Dump ship's entire track history